Location: Amsterdam
(30.7274°N, 84.4357°W)
Time: 19:49:07
(UTC+00:00)

Altair - Pass Details

Date: 14 August 2024
Orbit: 1501 x 1682 km, 47.2° (Epoch: 07 September)

Event Time Altitude Azimuth Distance (km) Brightness Sun altitude
Rises 16:46:19 0° 246° (WSW) 4,916 10.1 68.9°
Reaches altitude 10° 16:49:35 10° 250° (WSW) 3,917 9.7 69.4°
Maximum altitude 16:59:26 58° 328° (NNW) 1,865 8.7 70.6°
Drops below altitude 10° 17:08:59 10° 46° (NE) 3,800 9.7 71.6°
Sets 17:12:08 0° 51° (NE) 4,761 10.0 71.9°
